Time,TemperatureF,DewpointF,PressureIn,WindDirection,WindDirectionDegrees,WindSpeedMPH,WindSpeedGustMPH,Humidity,HourlyPrecipIn,Conditions,Clouds,dailyrainin,SolarRadiationWatts/m^2,SoftwareType,DateUTC
2013-07-11 00:01:00,64.1,63.8,29.29,NW,306,0.0,0.0,99,0.00,,,0.00,0,WeatherCatV1.15B25,2013-07-11 04:01:00,
2013-07-11 00:06:00,64.0,63.7,29.30,NW,306,0.0,0.0,99,0.00,,,0.00,0,WeatherCatV1.15B25,2013-07-11 04:06:00,
2013-07-11 00:11:00,64.0,63.7,29.29,NW,306,0.0,0.0,99,0.00,,,0.00,0,WeatherCatV1.15B25,2013-07-11 04:11:00,
2013-07-11 00:16:00,64.0,63.7,29.29,NW,306,0.0,0.0,99,0.00,,,0.00,0,WeatherCatV1.15B25,2013-07-11 04:16:00,
2013-07-11 00:21:00,64.0,63.7,29.29,NW,306,0.0,0.0,99,0.00,,,0.00,0,WeatherCatV1.15B25,2013-07-11 04:21:00,
2013-07-11 00:26:00,63.9,63.6,29.29,NW,306,0.0,0.0,99,0.00,,,0.00,0,WeatherCatV1.15B25,2013-07-11 04:26:00,
2013-07-11 00:31:00,63.9,63.6,29.29,NW,306,0.0,0.0,99,0.00,,,0.00,0,WeatherCatV1.15B25,2013-07-11 04:31:00,
2013-07-11 00:36:00,63.9,63.6,29.28,NW,306,0.0,0.0,99,0.00,,,0.00,0,WeatherCatV1.15B25,2013-07-11 04:36:00,
2013-07-11 00:41:00,63.9,63.9,29.28,NW,306,0.0,0.0,100,0.00,,,0.00,0,WeatherCatV1.15B25,2013-07-11 04:41:00,
2013-07-11 00:46:00,64.0,63.7,29.28,NW,306,0.0,1.0,99,0.00,,,0.00,0,WeatherCatV1.15B25,2013-07-11 04:46:00,
2013-07-11 00:51:00,64.1,64.1,29.28,NW,306,0.0,0.0,100,0.00,,,0.00,0,WeatherCatV1.15B25,2013-07-11 04:51:00,
2013-07-11 00:56:00,64.2,64.2,29.28,NW,306,0.0,0.0,100,0.00,,,0.00,0,WeatherCatV1.15B25,2013-07-11 04:56:00,
2013-07-11 01:01:00,64.2,64.2,29.29,NW,306,0.0,0.0,100,0.00,,,0.00,0,WeatherCatV1.15B25,2013-07-11 05:01:00,
2013-07-11 01:06:00,64.2,64.2,29.28,NW,306,0.0,0.0,100,0.00,,,0.00,0,WeatherCatV1.15B25,2013-07-11 05:06:00,
2013-07-11 01:11:00,64.2,64.2,29.28,NW,306,0.0,0.0,100,0.00,,,0.00,0,WeatherCatV1.15B25,2013-07-11 05:11:00,
2013-07-11 01:16:00,64.2,64.2,29.28,NW,306,0.0,0.0,100,0.00,,,0.00,0,WeatherCatV1.15B25,2013-07-11 05:16:00,
2013-07-11 01:21:00,64.2,64.2,29.28,NW,306,0.0,0.0,100,0.00,,,0.00,0,WeatherCatV1.15B25,2013-07-11 05:21:00,
2013-07-11 01:26:00,64.2,64.2,29.28,NW,306,0.0,0.0,100,0.00,,,0.00,0,WeatherCatV1.15B25,2013-07-11 05:26:00,
2013-07-11 01:31:00,64.2,64.2,29.28,NW,306,0.0,0.0,100,0.00,,,0.00,0,WeatherCatV1.15B25,2013-07-11 05:31:00,
2013-07-11 01:36:00,64.2,64.2,29.28,NW,306,0.0,0.0,100,0.00,,,0.00,0,WeatherCatV1.15B25,2013-07-11 05:36:00,
2013-07-11 01:41:00,64.2,64.2,29.28,NW,306,0.0,0.0,100,0.00,,,0.00,0,WeatherCatV1.15B25,2013-07-11 05:41:00,
2013-07-11 01:46:00,64.2,64.2,29.28,NW,306,0.0,0.0,100,0.00,,,0.00,0,WeatherCatV1.15B25,2013-07-11 05:46:00,
2013-07-11 01:51:00,64.2,64.2,29.28,NW,306,0.0,0.0,100,0.00,,,0.00,0,WeatherCatV1.15B25,2013-07-11 05:51:00,
2013-07-11 01:56:00,64.3,64.3,29.27,NW,306,0.0,0.0,100,0.00,,,0.00,0,WeatherCatV1.15B25,2013-07-11 05:56:00,
2013-07-11 02:01:00,64.3,64.3,29.27,NW,306,0.0,0.0,100,0.00,,,0.00,0,WeatherCatV1.15B25,2013-07-11 06:01:00,
2013-07-11 02:06:00,64.3,64.3,29.27,NW,306,0.0,0.0,100,0.00,,,0.00,0,WeatherCatV1.15B25,2013-07-11 06:06:00,
2013-07-11 02:11:00,64.3,64.3,29.27,NW,306,0.0,0.0,100,0.00,,,0.00,0,WeatherCatV1.15B25,2013-07-11 06:11:00,
2013-07-11 02:16:00,64.4,64.4,29.27,NW,306,0.0,0.0,100,0.00,,,0.00,0,WeatherCatV1.15B25,2013-07-11 06:16:00,
2013-07-11 02:21:00,64.5,64.5,29.27,NW,306,0.0,0.0,100,0.00,,,0.00,0,WeatherCatV1.15B25,2013-07-11 06:21:00,
2013-07-11 02:26:00,64.5,64.5,29.27,NW,306,0.0,0.0,100,0.00,,,0.00,0,WeatherCatV1.15B25,2013-07-11 06:26:00,
2013-07-11 02:31:00,64.5,64.5,29.27,NW,306,0.0,0.0,100,0.00,,,0.00,0,WeatherCatV1.15B25,2013-07-11 06:31:00,
2013-07-11 02:36:00,64.5,64.5,29.27,NW,306,0.0,0.0,100,0.00,,,0.00,0,WeatherCatV1.15B25,2013-07-11 06:36:00,
2013-07-11 02:38:00,64.5,64.5,29.27,NW,306,0.0,0.0,100,0.00,,,0.00,0,WeatherCatV1.15B25,2013-07-11 06:38:00,
2013-07-11 02:43:00,64.5,64.5,29.27,NW,306,0.0,0.0,100,0.00,,,0.00,0,WeatherCatV1.15B25,2013-07-11 06:43:00,
2013-07-11 02:48:00,64.5,64.5,29.27,NW,306,0.0,0.0,100,0.00,,,0.00,0,WeatherCatV1.15B25,2013-07-11 06:48:00,
2013-07-11 02:53:00,64.5,64.5,29.27,NW,306,0.0,0.0,100,0.00,,,0.00,0,WeatherCatV1.15B25,2013-07-11 06:53:00,
2013-07-11 02:58:00,64.5,64.5,29.27,NW,306,0.0,0.0,100,0.00,,,0.00,0,WeatherCatV1.15B25,2013-07-11 06:58:00,
2013-07-11 03:02:00,64.5,64.5,29.27,NW,306,0.0,0.0,100,0.00,,,0.00,0,WeatherCatV1.15B25,2013-07-11 07:02:00,
2013-07-11 03:07:00,64.5,64.5,29.27,NW,306,0.0,0.0,100,0.00,,,0.00,0,WeatherCatV1.15B25,2013-07-11 07:07:00,
2013-07-11 03:12:00,64.5,64.5,29.27,NW,306,0.0,0.0,100,0.00,,,0.00,0,WeatherCatV1.15B25,2013-07-11 07:12:00,
2013-07-11 03:17:00,64.6,64.6,29.27,NW,306,0.0,0.0,100,0.00,,,0.00,0,WeatherCatV1.15B25,2013-07-11 07:17:00,
2013-07-11 03:22:00,64.6,64.6,29.27,NW,306,0.0,0.0,100,0.00,,,0.00,0,WeatherCatV1.15B25,2013-07-11 07:22:00,
2013-07-11 03:27:00,64.6,64.6,29.27,NW,306,0.0,0.0,100,0.00,,,0.00,0,WeatherCatV1.15B25,2013-07-11 07:27:00,
2013-07-11 03:32:00,64.6,64.6,29.28,NW,306,0.0,0.0,100,0.00,,,0.00,0,WeatherCatV1.15B25,2013-07-11 07:32:00,
2013-07-11 03:37:00,64.6,64.6,29.28,NW,306,0.0,0.0,100,0.00,,,0.00,0,WeatherCatV1.15B25,2013-07-11 07:37:00,
2013-07-11 03:42:00,64.6,64.6,29.28,NW,306,0.0,0.0,100,0.00,,,0.00,0,WeatherCatV1.15B25,2013-07-11 07:42:00,
2013-07-11 03:47:00,64.6,64.6,29.28,NW,306,0.0,0.0,100,0.00,,,0.00,0,WeatherCatV1.15B25,2013-07-11 07:47:00,
2013-07-11 03:52:00,64.6,64.6,29.28,NW,306,0.0,0.0,100,0.00,,,0.00,0,WeatherCatV1.15B25,2013-07-11 07:52:00,
2013-07-11 03:57:00,64.6,64.6,29.28,NW,306,0.0,0.0,100,0.00,,,0.00,0,WeatherCatV1.15B25,2013-07-11 07:57:00,
2013-07-11 04:02:00,64.6,64.6,29.29,NW,306,0.0,0.0,100,0.00,,,0.00,0,WeatherCatV1.15B25,2013-07-11 08:02:00,
2013-07-11 04:07:00,64.6,64.6,29.29,NW,306,0.0,0.0,100,0.00,,,0.00,0,WeatherCatV1.15B25,2013-07-11 08:07:00,
2013-07-11 04:12:00,64.6,64.6,29.29,NW,306,0.0,0.0,100,0.00,,,0.00,0,WeatherCatV1.15B25,2013-07-11 08:12:00,
2013-07-11 04:17:00,64.6,64.6,29.28,NW,306,0.0,0.0,100,0.00,,,0.00,0,WeatherCatV1.15B25,2013-07-11 08:17:00,
2013-07-11 04:22:00,64.6,64.6,29.28,NW,306,0.0,0.0,100,0.00,,,0.00,0,WeatherCatV1.15B25,2013-07-11 08:22:00,
2013-07-11 04:27:00,64.5,64.5,29.29,NW,306,0.0,0.0,100,0.00,,,0.00,0,WeatherCatV1.15B25,2013-07-11 08:27:00,
2013-07-11 04:32:00,64.6,64.6,29.29,NW,306,0.0,0.0,100,0.00,,,0.00,0,WeatherCatV1.15B25,2013-07-11 08:32:00,
2013-07-11 04:37:00,64.6,64.6,29.29,NW,306,0.0,0.0,100,0.00,,,0.00,0,WeatherCatV1.15B25,2013-07-11 08:37:00,
2013-07-11 04:42:00,64.6,64.6,29.29,NW,306,0.0,0.0,100,0.00,,,0.00,0,WeatherCatV1.15B25,2013-07-11 08:42:00,
2013-07-11 04:47:00,64.6,64.6,29.29,NW,306,0.0,0.0,100,0.00,,,0.00,0,WeatherCatV1.15B25,2013-07-11 08:47:00,
2013-07-11 04:52:00,64.6,64.6,29.29,NW,306,0.0,0.0,100,0.00,,,0.00,0,WeatherCatV1.15B25,2013-07-11 08:52:00,
2013-07-11 04:57:00,64.6,64.6,29.29,NW,306,0.0,0.0,100,0.00,,,0.00,0,WeatherCatV1.15B25,2013-07-11 08:57:00,
2013-07-11 05:02:00,64.6,64.6,29.29,NW,306,0.0,0.0,100,0.00,,,0.00,0,WeatherCatV1.15B25,2013-07-11 09:02:00,
2013-07-11 05:07:00,64.6,64.6,29.30,NW,306,0.0,0.0,100,0.00,,,0.00,0,WeatherCatV1.15B25,2013-07-11 09:07:00,
2013-07-11 05:12:00,64.6,64.6,29.30,NW,306,0.0,0.0,100,0.00,,,0.00,0,WeatherCatV1.15B25,2013-07-11 09:12:00,
2013-07-11 05:17:00,64.6,64.6,29.30,NW,306,0.0,0.0,100,0.00,,,0.00,0,WeatherCatV1.15B25,2013-07-11 09:17:00,
2013-07-11 05:22:00,64.6,64.6,29.31,NW,306,0.0,0.0,100,0.00,,,0.00,0,WeatherCatV1.15B25,2013-07-11 09:22:00,
2013-07-11 05:27:00,64.8,64.8,29.31,North,5,4.0,4.0,100,0.00,,,0.00,0,WeatherCatV1.15B25,2013-07-11 09:27:00,
2013-07-11 05:32:00,65.0,65.0,29.31,North,5,0.0,0.0,100,0.00,,,0.00,0,WeatherCatV1.15B25,2013-07-11 09:32:00,
2013-07-11 05:37:00,65.0,65.0,29.31,North,5,0.0,0.0,100,0.00,,,0.00,0,WeatherCatV1.15B25,2013-07-11 09:37:00,
2013-07-11 05:42:00,65.0,65.0,29.31,North,5,0.0,1.0,100,0.00,,,0.00,0,WeatherCatV1.15B25,2013-07-11 09:42:00,
2013-07-11 05:47:00,65.0,65.0,29.30,NW,319,0.0,0.0,100,0.00,,,0.00,5,WeatherCatV1.15B25,2013-07-11 09:47:00,
2013-07-11 05:52:00,65.0,65.0,29.30,NW,319,0.0,0.0,100,0.00,,,0.00,5,WeatherCatV1.15B25,2013-07-11 09:52:00,
2013-07-11 05:57:00,64.9,64.9,29.31,NW,319,0.0,0.0,100,0.00,,,0.00,0,WeatherCatV1.15B25,2013-07-11 09:57:00,
2013-07-11 06:02:00,64.9,64.9,29.31,NW,319,0.0,0.0,100,0.00,,,0.00,0,WeatherCatV1.15B25,2013-07-11 10:02:00,
2013-07-11 06:07:00,64.9,64.9,29.31,NW,319,0.0,0.0,100,0.00,,,0.00,7,WeatherCatV1.15B25,2013-07-11 10:07:00,
2013-07-11 06:12:00,64.9,64.9,29.31,NW,319,0.0,0.0,100,0.00,,,0.00,7,WeatherCatV1.15B25,2013-07-11 10:12:00,
2013-07-11 06:17:00,64.9,64.9,29.31,NW,319,0.0,0.0,100,0.00,,,0.00,9,WeatherCatV1.15B25,2013-07-11 10:17:00,
2013-07-11 06:22:00,64.9,64.9,29.31,NW,319,0.0,0.0,100,0.00,,,0.00,9,WeatherCatV1.15B25,2013-07-11 10:22:00,
2013-07-11 06:27:00,64.9,64.9,29.31,NW,319,0.0,0.0,100,0.00,,,0.00,7,WeatherCatV1.15B25,2013-07-11 10:27:00,
2013-07-11 06:32:00,64.9,64.9,29.31,NW,319,0.0,0.0,100,0.00,,,0.00,7,WeatherCatV1.15B25,2013-07-11 10:32:00,
2013-07-11 06:37:00,64.9,64.9,29.31,NW,319,0.0,0.0,100,0.00,,,0.00,5,WeatherCatV1.15B25,2013-07-11 10:37:00,
2013-07-11 06:42:00,65.0,65.0,29.31,NW,319,0.0,0.0,100,0.00,,,0.00,7,WeatherCatV1.15B25,2013-07-11 10:42:00,
2013-07-11 06:47:00,65.0,65.0,29.31,NW,319,0.0,0.0,100,0.00,,,0.00,9,WeatherCatV1.15B25,2013-07-11 10:47:00,
2013-07-11 06:52:00,65.0,65.0,29.31,NW,319,0.0,0.0,100,0.00,,,0.00,9,WeatherCatV1.15B25,2013-07-11 10:52:00,
2013-07-11 06:57:00,65.0,65.0,29.32,NW,319,0.0,0.0,100,0.00,,,0.00,9,WeatherCatV1.15B25,2013-07-11 10:57:00,
2013-07-11 07:02:00,65.0,65.0,29.32,NW,319,0.0,0.0,100,0.00,,,0.00,18,WeatherCatV1.15B25,2013-07-11 11:02:00,
2013-07-11 07:07:00,65.0,65.0,29.31,NW,319,0.0,0.0,100,0.00,,,0.00,14,WeatherCatV1.15B25,2013-07-11 11:07:00,
2013-07-11 07:12:00,65.0,65.0,29.31,NW,319,0.0,0.0,100,0.00,,,0.00,16,WeatherCatV1.15B25,2013-07-11 11:12:00,
2013-07-11 07:17:00,65.0,65.0,29.31,NW,319,0.0,0.0,100,0.00,,,0.00,16,WeatherCatV1.15B25,2013-07-11 11:17:00,
2013-07-11 07:22:00,65.0,65.0,29.32,NW,319,0.0,0.0,100,0.00,,,0.00,12,WeatherCatV1.15B25,2013-07-11 11:22:00,
2013-07-11 07:27:00,65.1,65.1,29.31,NW,319,0.0,0.0,100,0.00,,,0.00,16,WeatherCatV1.15B25,2013-07-11 11:27:00,
2013-07-11 07:32:00,65.1,65.1,29.32,NW,319,0.0,0.0,100,0.00,,,0.01,30,WeatherCatV1.15B25,2013-07-11 11:32:00,
2013-07-11 07:37:00,65.2,65.2,29.32,NW,319,0.0,0.0,100,0.00,,,0.01,39,WeatherCatV1.15B25,2013-07-11 11:37:00,
2013-07-11 07:42:00,65.3,65.3,29.32,NW,319,0.0,0.0,100,0.00,,,0.01,33,WeatherCatV1.15B25,2013-07-11 11:42:00,
2013-07-11 07:47:00,65.4,65.4,29.32,NW,319,0.0,0.0,100,0.00,,,0.01,39,WeatherCatV1.15B25,2013-07-11 11:47:00,
2013-07-11 07:52:00,65.5,65.5,29.32,NW,319,0.0,0.0,100,0.00,,,0.01,35,WeatherCatV1.15B25,2013-07-11 11:52:00,
2013-07-11 07:57:00,65.6,65.6,29.32,NW,319,0.0,0.0,100,0.00,,,0.01,30,WeatherCatV1.15B25,2013-07-11 11:57:00,
2013-07-11 08:02:00,65.7,65.7,29.31,NW,319,0.0,0.0,100,0.00,,,0.01,37,WeatherCatV1.15B25,2013-07-11 12:02:00,
2013-07-11 08:07:00,65.9,65.9,29.32,NW,319,0.0,0.0,100,0.00,,,0.01,37,WeatherCatV1.15B25,2013-07-11 12:07:00,
2013-07-11 08:12:00,66.1,66.1,29.32,NW,319,0.0,0.0,100,0.00,,,0.01,51,WeatherCatV1.15B25,2013-07-11 12:12:00,
2013-07-11 08:17:00,66.2,66.2,29.31,NW,319,0.0,0.0,100,0.00,,,0.01,54,WeatherCatV1.15B25,2013-07-11 12:17:00,
2013-07-11 08:22:00,66.3,66.3,29.32,NW,319,0.0,0.0,100,0.00,,,0.01,40,WeatherCatV1.15B25,2013-07-11 12:22:00,
2013-07-11 08:27:00,66.5,66.5,29.31,NW,319,0.0,0.0,100,0.00,,,0.01,46,WeatherCatV1.15B25,2013-07-11 12:27:00,
2013-07-11 08:32:00,66.6,66.6,29.31,NW,319,0.0,0.0,100,0.00,,,0.01,56,WeatherCatV1.15B25,2013-07-11 12:32:00,
2013-07-11 08:37:00,66.8,66.8,29.30,NW,319,0.0,0.0,100,0.00,,,0.01,69,WeatherCatV1.15B25,2013-07-11 12:37:00,
2013-07-11 08:42:00,67.0,67.0,29.31,NW,319,0.0,0.0,100,0.00,,,0.01,62,WeatherCatV1.15B25,2013-07-11 12:42:00,
2013-07-11 08:47:00,67.1,67.1,29.32,NW,319,0.0,0.0,100,0.00,,,0.01,63,WeatherCatV1.15B25,2013-07-11 12:47:00,
2013-07-11 08:52:00,67.2,67.2,29.31,NW,319,0.0,0.0,100,0.00,,,0.01,81,WeatherCatV1.15B25,2013-07-11 12:52:00,
2013-07-11 08:57:00,67.2,67.2,29.31,NW,319,0.0,0.0,100,0.00,,,0.01,77,WeatherCatV1.15B25,2013-07-11 12:57:00,
2013-07-11 09:02:00,67.3,67.3,29.31,NW,319,0.0,0.0,100,0.00,,,0.01,53,WeatherCatV1.15B25,2013-07-11 13:02:00,
2013-07-11 09:07:00,67.5,67.5,29.31,NW,319,0.0,0.0,100,0.00,,,0.01,54,WeatherCatV1.15B25,2013-07-11 13:07:00,
2013-07-11 09:12:00,67.5,67.5,29.32,NW,319,0.0,0.0,100,0.00,,,0.01,44,WeatherCatV1.15B25,2013-07-11 13:12:00,
2013-07-11 09:17:00,67.6,67.6,29.33,NW,319,0.0,0.0,100,0.00,,,0.01,40,WeatherCatV1.15B25,2013-07-11 13:17:00,
2013-07-11 09:22:00,67.6,67.6,29.33,NW,319,0.0,0.0,100,0.00,,,0.01,19,WeatherCatV1.15B25,2013-07-11 13:22:00,
2013-07-11 09:27:00,67.7,67.7,29.33,NW,319,0.0,0.0,100,0.00,,,0.01,12,WeatherCatV1.15B25,2013-07-11 13:27:00,
2013-07-11 09:32:00,67.8,67.8,29.33,NW,319,0.0,0.0,100,0.00,,,0.01,7,WeatherCatV1.15B25,2013-07-11 13:32:00,
2013-07-11 09:37:00,67.8,67.8,29.34,NW,319,1.0,1.0,100,0.00,,,0.01,0,WeatherCatV1.15B25,2013-07-11 13:37:00,
2013-07-11 09:42:00,67.8,67.8,29.34,NW,319,0.0,0.0,100,0.00,,,0.01,9,WeatherCatV1.15B25,2013-07-11 13:42:00,
2013-07-11 09:47:00,67.7,67.7,29.34,NNW,348,0.0,1.0,100,0.44,,,0.10,16,WeatherCatV1.15B25,2013-07-11 13:47:00,
2013-07-11 09:52:00,67.6,67.6,29.34,NNW,348,0.0,0.0,100,0.18,,,0.12,19,WeatherCatV1.15B25,2013-07-11 13:52:00,
2013-07-11 09:57:00,67.4,67.4,29.34,NNW,348,0.0,1.0,100,0.13,,,0.13,26,WeatherCatV1.15B25,2013-07-11 13:57:00,
2013-07-11 10:02:00,67.2,67.2,29.34,NNW,348,0.0,0.0,100,0.29,,,0.15,21,WeatherCatV1.15B25,2013-07-11 14:02:00,
2013-07-11 10:07:00,67.1,67.1,29.34,NNW,348,0.0,0.0,100,0.14,,,0.16,18,WeatherCatV1.15B25,2013-07-11 14:07:00,
2013-07-11 10:12:00,67.1,67.1,29.34,NNW,348,0.0,0.0,100,0.28,,,0.19,23,WeatherCatV1.15B25,2013-07-11 14:12:00,
2013-07-11 10:17:00,67.0,67.0,29.33,NNW,348,0.0,0.0,100,0.15,,,0.20,46,WeatherCatV1.15B25,2013-07-11 14:17:00,
2013-07-11 10:22:00,67.0,67.0,29.33,NNW,348,0.0,0.0,100,0.07,,,0.20,44,WeatherCatV1.15B25,2013-07-11 14:22:00,
2013-07-11 10:27:00,67.0,67.0,29.33,NNW,348,0.0,1.0,100,0.04,,,0.20,47,WeatherCatV1.15B25,2013-07-11 14:27:00,
2013-07-11 10:32:00,67.1,67.1,29.33,NNW,348,0.0,0.0,100,0.00,,,0.20,54,WeatherCatV1.15B25,2013-07-11 14:32:00,
2013-07-11 10:37:00,67.2,67.2,29.33,NNW,348,0.0,0.0,100,0.00,,,0.20,39,WeatherCatV1.15B25,2013-07-11 14:37:00,
2013-07-11 10:42:00,67.2,67.2,29.33,NNW,348,0.0,1.0,100,0.00,,,0.20,51,WeatherCatV1.15B25,2013-07-11 14:42:00,
2013-07-11 10:47:00,67.4,67.4,29.33,NNW,348,0.0,0.0,100,0.00,,,0.20,46,WeatherCatV1.15B25,2013-07-11 14:47:00,
2013-07-11 10:52:00,67.5,67.5,29.34,NNW,348,0.0,0.0,100,0.00,,,0.21,47,WeatherCatV1.15B25,2013-07-11 14:52:00,
2013-07-11 10:57:00,67.6,67.6,29.34,NNW,348,0.0,0.0,100,0.00,,,0.21,53,WeatherCatV1.15B25,2013-07-11 14:57:00,
2013-07-11 11:02:00,67.7,67.7,29.34,NNW,348,0.0,0.0,100,0.00,,,0.21,62,WeatherCatV1.15B25,2013-07-11 15:02:00,
2013-07-11 11:07:00,67.9,67.9,29.34,NNW,348,0.0,0.0,100,0.00,,,0.21,81,WeatherCatV1.15B25,2013-07-11 15:07:00,
2013-07-11 11:12:00,68.0,68.0,29.34,NNW,348,0.0,0.0,100,0.00,,,0.21,44,WeatherCatV1.15B25,2013-07-11 15:12:00,
2013-07-11 11:17:00,68.1,68.1,29.35,NNW,348,0.0,0.0,100,0.00,,,0.21,42,WeatherCatV1.15B25,2013-07-11 15:17:00,
2013-07-11 11:22:00,68.2,68.2,29.34,NNW,348,0.0,0.0,100,0.00,,,0.21,44,WeatherCatV1.15B25,2013-07-11 15:22:00,
2013-07-11 11:27:00,68.3,68.3,29.34,NNW,348,0.0,1.0,100,0.00,,,0.21,69,WeatherCatV1.15B25,2013-07-11 15:27:00,
2013-07-11 11:32:00,68.4,68.4,29.34,NNW,348,0.0,0.0,100,0.00,,,0.21,76,WeatherCatV1.15B25,2013-07-11 15:32:00,
2013-07-11 11:37:00,68.4,68.4,29.34,NNW,348,0.0,0.0,100,0.00,,,0.21,72,WeatherCatV1.15B25,2013-07-11 15:37:00,
2013-07-11 11:42:00,68.5,68.5,29.34,NNW,348,0.0,0.0,100,0.00,,,0.21,65,WeatherCatV1.15B25,2013-07-11 15:42:00,
2013-07-11 11:47:00,68.5,68.5,29.34,NNW,348,0.0,0.0,100,0.00,,,0.21,97,WeatherCatV1.15B25,2013-07-11 15:47:00,
2013-07-11 11:52:00,68.5,68.5,29.34,NNW,348,0.0,0.0,100,0.00,,,0.21,47,WeatherCatV1.15B25,2013-07-11 15:52:00,
2013-07-11 11:57:00,68.5,68.5,29.35,NNW,348,0.0,0.0,100,0.00,,,0.21,35,WeatherCatV1.15B25,2013-07-11 15:57:00,
2013-07-11 12:02:00,68.6,68.6,29.35,NNW,348,0.0,0.0,100,0.00,,,0.21,37,WeatherCatV1.15B25,2013-07-11 16:02:00,
2013-07-11 12:07:00,68.8,68.8,29.35,NNW,348,0.0,0.0,100,0.00,,,0.21,37,WeatherCatV1.15B25,2013-07-11 16:07:00,
2013-07-11 12:12:00,68.9,68.9,29.35,NNW,348,0.0,0.0,100,0.00,,,0.21,44,WeatherCatV1.15B25,2013-07-11 16:12:00,
2013-07-11 12:17:00,69.0,69.0,29.35,NNW,348,0.0,0.0,100,0.00,,,0.21,53,WeatherCatV1.15B25,2013-07-11 16:17:00,
2013-07-11 12:22:00,69.1,69.1,29.35,NNW,348,0.0,0.0,100,0.00,,,0.21,47,WeatherCatV1.15B25,2013-07-11 16:22:00,
2013-07-11 12:27:00,69.1,69.1,29.35,NNW,348,0.0,0.0,100,0.00,,,0.21,56,WeatherCatV1.15B25,2013-07-11 16:27:00,
2013-07-11 12:32:00,69.2,69.2,29.35,NNW,348,0.0,0.0,100,0.00,,,0.21,67,WeatherCatV1.15B25,2013-07-11 16:32:00,
2013-07-11 12:37:00,69.2,69.2,29.34,NNW,348,0.0,0.0,100,0.00,,,0.21,107,WeatherCatV1.15B25,2013-07-11 16:37:00,
2013-07-11 12:42:00,69.3,69.3,29.35,NNW,348,0.0,0.0,100,0.00,,,0.21,109,WeatherCatV1.15B25,2013-07-11 16:42:00,
2013-07-11 12:47:00,69.5,69.5,29.35,NNW,348,0.0,0.0,100,0.00,,,0.21,107,WeatherCatV1.15B25,2013-07-11 16:47:00,
2013-07-11 12:52:00,69.8,69.8,29.34,NNW,348,0.0,0.0,100,0.00,,,0.21,144,WeatherCatV1.15B25,2013-07-11 16:52:00,
2013-07-11 12:57:00,70.0,70.0,29.35,NNW,348,0.0,0.0,100,0.00,,,0.21,109,WeatherCatV1.15B25,2013-07-11 16:57:00,
2013-07-11 13:02:00,70.2,70.2,29.34,NNW,348,0.0,0.0,100,0.00,,,0.21,79,WeatherCatV1.15B25,2013-07-11 17:02:00,
2013-07-11 13:07:00,70.4,70.4,29.34,NNW,348,0.0,0.0,100,0.00,,,0.21,76,WeatherCatV1.15B25,2013-07-11 17:07:00,
2013-07-11 13:13:00,70.6,70.6,29.34,NNW,348,0.0,0.0,100,0.00,,,0.21,81,WeatherCatV1.15B25,2013-07-11 17:13:00,
2013-07-11 13:18:00,70.8,70.8,29.34,NNW,348,0.0,0.0,100,0.00,,,0.21,54,WeatherCatV1.15B25,2013-07-11 17:18:00,
2013-07-11 13:21:00,70.9,70.9,29.34,NNW,348,0.0,0.0,100,0.00,,,0.21,60,WeatherCatV1.15B25,2013-07-11 17:21:00,
2013-07-11 13:26:00,71.0,71.0,29.34,NNW,348,0.0,0.0,100,0.00,,,0.21,104,WeatherCatV1.15B25,2013-07-11 17:26:00,
2013-07-11 13:31:00,71.2,71.2,29.34,NNW,348,0.0,0.0,100,0.00,,,0.21,100,WeatherCatV1.15B25,2013-07-11 17:31:00,
2013-07-11 13:36:00,71.4,71.4,29.34,NNW,348,0.0,0.0,100,0.00,,,0.21,160,WeatherCatV1.15B25,2013-07-11 17:36:00,
2013-07-11 13:41:00,71.7,71.7,29.34,NNW,348,0.0,0.0,100,0.00,,,0.21,120,WeatherCatV1.15B25,2013-07-11 17:41:00,
2013-07-11 13:46:00,71.7,71.7,29.34,NNW,348,0.0,0.0,100,0.00,,,0.21,149,WeatherCatV1.15B25,2013-07-11 17:46:00,
2013-07-11 13:51:00,71.9,71.9,29.34,NNW,348,0.0,0.0,100,0.00,,,0.21,93,WeatherCatV1.15B25,2013-07-11 17:51:00,
2013-07-11 13:56:00,71.9,71.9,29.34,NNW,348,0.0,0.0,100,0.00,,,0.21,109,WeatherCatV1.15B25,2013-07-11 17:56:00,
2013-07-11 14:01:00,71.9,71.9,29.34,NNW,348,0.0,0.0,100,0.00,,,0.21,149,WeatherCatV1.15B25,2013-07-11 18:01:00,
2013-07-11 14:06:00,71.9,71.9,29.33,NNW,348,0.0,0.0,100,0.00,,,0.22,246,WeatherCatV1.15B25,2013-07-11 18:06:00,
2013-07-11 14:11:00,71.8,71.8,29.33,NNW,348,0.0,1.0,100,0.00,,,0.22,127,WeatherCatV1.15B25,2013-07-11 18:11:00,
2013-07-11 14:16:00,71.6,71.6,29.33,NNW,348,0.0,0.0,100,0.00,,,0.22,156,WeatherCatV1.15B25,2013-07-11 18:16:00,
2013-07-11 14:21:00,71.7,71.7,29.34,NNW,348,0.0,0.0,100,0.00,,,0.22,76,WeatherCatV1.15B25,2013-07-11 18:21:00,
2013-07-11 14:26:00,71.9,71.9,29.34,NNW,348,0.0,0.0,100,0.00,,,0.22,74,WeatherCatV1.15B25,2013-07-11 18:26:00,
2013-07-11 14:31:00,72.0,72.0,29.35,NNW,348,0.0,0.0,100,0.00,,,0.22,47,WeatherCatV1.15B25,2013-07-11 18:31:00,
2013-07-11 14:36:00,72.1,72.1,29.35,NNW,348,0.0,0.0,100,0.00,,,0.22,56,WeatherCatV1.15B25,2013-07-11 18:36:00,
2013-07-11 14:41:00,72.0,72.0,29.35,NNW,348,0.0,3.0,100,0.00,,,0.22,37,WeatherCatV1.15B25,2013-07-11 18:41:00,
2013-07-11 14:46:00,71.8,71.8,29.35,NNW,348,0.0,0.0,100,0.00,,,0.22,42,WeatherCatV1.15B25,2013-07-11 18:46:00,
2013-07-11 14:51:00,71.8,71.5,29.35,NNW,348,0.0,0.0,99,0.00,,,0.23,77,WeatherCatV1.15B25,2013-07-11 18:51:00,
2013-07-11 14:56:00,71.8,71.2,29.35,NNW,348,0.0,0.0,98,0.10,,,0.24,81,WeatherCatV1.15B25,2013-07-11 18:56:00,
2013-07-11 15:01:00,71.7,70.2,29.34,NNW,348,0.0,0.0,95,0.09,,,0.24,141,WeatherCatV1.15B25,2013-07-11 19:01:00,
2013-07-11 15:06:00,71.7,70.5,29.35,NNW,348,0.0,0.0,96,0.05,,,0.24,109,WeatherCatV1.15B25,2013-07-11 19:06:00,
2013-07-11 15:11:00,71.8,70.9,29.35,NNW,348,0.0,0.0,97,0.04,,,0.24,88,WeatherCatV1.15B25,2013-07-11 19:11:00,
2013-07-11 15:16:00,71.9,71.0,29.34,NNW,348,0.0,0.0,97,0.00,,,0.24,216,WeatherCatV1.15B25,2013-07-11 19:16:00,
2013-07-11 15:21:00,72.1,71.2,29.34,NNW,348,0.0,0.0,97,0.00,,,0.24,694,WeatherCatV1.15B25,2013-07-11 19:21:00,
2013-07-11 15:26:00,72.3,71.4,29.34,NNW,348,0.0,0.0,97,0.00,,,0.24,707,WeatherCatV1.15B25,2013-07-11 19:26:00,
2013-07-11 15:31:00,72.3,70.5,29.34,NNW,348,0.0,0.0,94,0.00,,,0.24,91,WeatherCatV1.15B25,2013-07-11 19:31:00,
2013-07-11 15:36:00,72.5,71.0,29.34,NNW,348,0.0,0.0,95,0.00,,,0.24,93,WeatherCatV1.15B25,2013-07-11 19:36:00,
2013-07-11 15:41:00,72.8,71.6,29.33,NNW,348,0.0,0.0,96,0.00,,,0.24,69,WeatherCatV1.15B25,2013-07-11 19:41:00,
2013-07-11 15:46:00,73.0,71.8,29.34,NNW,348,0.0,0.0,96,0.00,,,0.24,193,WeatherCatV1.15B25,2013-07-11 19:46:00,
2013-07-11 15:51:00,73.2,72.3,29.34,NNW,348,0.0,0.0,97,0.00,,,0.24,104,WeatherCatV1.15B25,2013-07-11 19:51:00,
2013-07-11 15:56:00,73.2,69.4,29.34,NNW,348,0.0,2.0,88,0.00,,,0.24,102,WeatherCatV1.15B25,2013-07-11 19:56:00,
2013-07-11 16:01:00,73.3,70.2,29.34,NNW,348,0.0,1.0,90,0.00,,,0.24,167,WeatherCatV1.15B25,2013-07-11 20:01:00,
2013-07-11 16:06:00,73.7,70.2,29.34,NNW,348,0.0,1.0,89,0.00,,,0.24,74,WeatherCatV1.15B25,2013-07-11 20:06:00,
2013-07-11 16:11:00,74.2,70.7,29.34,NNW,348,0.0,1.0,89,0.00,,,0.24,148,WeatherCatV1.15B25,2013-07-11 20:11:00,
2013-07-11 16:16:00,74.4,70.9,29.34,NNW,348,0.0,0.0,89,0.00,,,0.24,69,WeatherCatV1.15B25,2013-07-11 20:16:00,
2013-07-11 16:21:00,74.6,70.5,29.34,NNW,348,0.0,0.0,87,0.00,,,0.24,47,WeatherCatV1.15B25,2013-07-11 20:21:00,
2013-07-11 16:26:00,74.7,71.6,29.34,NNW,348,0.0,0.0,90,0.00,,,0.24,54,WeatherCatV1.15B25,2013-07-11 20:26:00,
2013-07-11 16:31:00,74.8,71.7,29.34,NNW,348,0.0,0.0,90,0.00,,,0.24,49,WeatherCatV1.15B25,2013-07-11 20:31:00,
2013-07-11 16:36:00,74.7,71.9,29.34,NNW,348,0.0,0.0,91,0.00,,,0.24,65,WeatherCatV1.15B25,2013-07-11 20:36:00,
2013-07-11 16:41:00,74.6,72.1,29.35,NNW,348,0.0,0.0,92,0.00,,,0.24,346,WeatherCatV1.15B25,2013-07-11 20:41:00,
2013-07-11 16:46:00,74.5,71.7,29.35,NNW,348,0.0,0.0,91,0.00,,,0.24,308,WeatherCatV1.15B25,2013-07-11 20:46:00,
2013-07-11 16:51:00,74.3,72.1,29.35,NNW,348,0.0,0.0,93,0.00,,,0.24,225,WeatherCatV1.15B25,2013-07-11 20:51:00,
2013-07-11 16:56:00,74.2,72.4,29.35,NNW,348,0.0,0.0,94,0.00,,,0.24,142,WeatherCatV1.15B25,2013-07-11 20:56:00,
2013-07-11 17:01:00,74.1,71.9,29.35,NNW,348,0.0,0.0,93,0.00,,,0.24,83,WeatherCatV1.15B25,2013-07-11 21:01:00,
2013-07-11 17:06:00,74.0,71.8,29.36,NNW,348,0.0,0.0,93,0.00,,,0.24,49,WeatherCatV1.15B25,2013-07-11 21:06:00,
2013-07-11 17:11:00,74.0,71.8,29.36,NNW,348,0.0,0.0,93,0.00,,,0.24,40,WeatherCatV1.15B25,2013-07-11 21:11:00,
2013-07-11 17:16:00,74.0,71.8,29.36,NNW,348,0.0,0.0,93,0.00,,,0.24,37,WeatherCatV1.15B25,2013-07-11 21:16:00,
2013-07-11 17:21:00,74.1,71.9,29.36,NNW,348,0.0,0.0,93,0.00,,,0.24,25,WeatherCatV1.15B25,2013-07-11 21:21:00,
2013-07-11 17:26:00,74.0,71.8,29.36,NNW,348,0.0,0.0,93,0.00,,,0.24,25,WeatherCatV1.15B25,2013-07-11 21:26:00,
2013-07-11 17:31:00,73.8,71.0,29.36,NNW,348,0.0,0.0,91,0.00,,,0.24,33,WeatherCatV1.15B25,2013-07-11 21:31:00,
2013-07-11 17:36:00,73.8,71.6,29.37,NNW,348,0.0,0.0,93,0.00,,,0.24,40,WeatherCatV1.15B25,2013-07-11 21:36:00,
2013-07-11 17:41:00,73.7,70.9,29.37,NNW,348,0.0,0.0,91,0.00,,,0.24,53,WeatherCatV1.15B25,2013-07-11 21:41:00,
2013-07-11 17:46:00,73.7,71.2,29.37,NNW,348,0.0,0.0,92,0.00,,,0.24,54,WeatherCatV1.15B25,2013-07-11 21:46:00,
2013-07-11 17:51:00,73.6,71.1,29.37,NNW,348,0.0,0.0,92,0.00,,,0.24,44,WeatherCatV1.15B25,2013-07-11 21:51:00,
2013-07-11 17:56:00,73.5,70.7,29.37,NNW,348,0.0,0.0,91,0.00,,,0.24,40,WeatherCatV1.15B25,2013-07-11 21:56:00,
2013-07-11 18:01:00,73.4,70.6,29.37,NNW,348,0.0,0.0,91,0.00,,,0.24,47,WeatherCatV1.15B25,2013-07-11 22:01:00,
2013-07-11 18:06:00,73.3,70.5,29.37,NNW,348,0.0,0.0,91,0.00,,,0.24,53,WeatherCatV1.15B25,2013-07-11 22:06:00,
2013-07-11 18:10:00,73.3,70.5,29.37,NNW,348,0.0,1.0,91,0.00,,,0.24,44,WeatherCatV1.15B25,2013-07-11 22:10:00,
2013-07-11 18:15:00,73.1,69.7,29.38,NNW,348,1.0,3.0,89,0.00,,,0.24,42,WeatherCatV1.15B25,2013-07-11 22:15:00,
2013-07-11 18:20:00,73.0,69.9,29.38,NNW,348,0.0,1.0,90,0.00,,,0.24,46,WeatherCatV1.15B25,2013-07-11 22:20:00,
2013-07-11 18:25:00,73.0,69.2,29.38,NNW,348,1.0,1.0,88,0.00,,,0.24,47,WeatherCatV1.15B25,2013-07-11 22:25:00,
2013-07-11 18:30:00,72.9,69.1,29.38,NNW,348,0.0,1.0,88,0.00,,,0.24,65,WeatherCatV1.15B25,2013-07-11 22:30:00,
2013-07-11 18:35:00,72.8,68.4,29.38,North,355,1.0,3.0,86,0.00,,,0.24,49,WeatherCatV1.15B25,2013-07-11 22:35:00,
2013-07-11 18:40:00,72.7,67.6,29.39,North,0,0.0,1.0,84,0.00,,,0.24,56,WeatherCatV1.15B25,2013-07-11 22:40:00,
2013-07-11 18:45:00,72.7,67.2,29.39,North,355,1.0,3.0,83,0.00,,,0.24,54,WeatherCatV1.15B25,2013-07-11 22:45:00,
2013-07-11 18:50:00,72.8,66.3,29.39,North,355,3.0,3.0,80,0.00,,,0.24,51,WeatherCatV1.15B25,2013-07-11 22:50:00,
2013-07-11 18:55:00,73.0,66.8,29.39,NNE,19,1.0,2.0,81,0.00,,,0.24,44,WeatherCatV1.15B25,2013-07-11 22:55:00,
2013-07-11 19:00:00,73.1,66.2,29.40,North,0,0.0,4.0,79,0.00,,,0.24,32,WeatherCatV1.15B25,2013-07-11 23:00:00,
2013-07-11 19:05:00,73.2,67.0,29.40,NNW,348,0.0,1.0,81,0.00,,,0.24,42,WeatherCatV1.15B25,2013-07-11 23:05:00,
2013-07-11 19:10:00,73.3,67.1,29.40,NNW,348,0.0,1.0,81,0.00,,,0.24,39,WeatherCatV1.15B25,2013-07-11 23:10:00,
2013-07-11 19:15:00,73.3,66.4,29.41,North,355,0.0,1.0,79,0.00,,,0.24,40,WeatherCatV1.15B25,2013-07-11 23:15:00,
2013-07-11 19:21:00,73.2,65.9,29.41,North,355,0.0,1.0,78,0.00,,,0.24,32,WeatherCatV1.15B25,2013-07-11 23:21:00,
2013-07-11 19:26:00,73.1,67.6,29.41,North,355,0.0,1.0,83,0.00,,,0.24,25,WeatherCatV1.15B25,2013-07-11 23:26:00,
2013-07-11 19:31:00,73.0,67.2,29.41,NNW,340,0.0,2.0,82,0.00,,,0.24,18,WeatherCatV1.15B25,2013-07-11 23:31:00,
2013-07-11 19:36:00,72.8,67.7,29.42,NNW,341,0.0,0.0,84,0.00,,,0.24,18,WeatherCatV1.15B25,2013-07-11 23:36:00,
2013-07-11 19:41:00,72.6,67.5,29.42,NNW,341,0.0,0.0,84,0.00,,,0.24,23,WeatherCatV1.15B25,2013-07-11 23:41:00,
2013-07-11 19:46:00,72.4,68.0,29.42,NNW,341,0.0,0.0,86,0.00,,,0.24,18,WeatherCatV1.15B25,2013-07-11 23:46:00,
2013-07-11 19:51:00,72.1,67.0,29.42,NNW,340,0.0,1.0,84,0.00,,,0.24,16,WeatherCatV1.15B25,2013-07-11 23:51:00,
2013-07-11 19:56:00,71.9,67.8,29.43,NNW,340,0.0,1.0,87,0.00,,,0.24,14,WeatherCatV1.15B25,2013-07-11 23:56:00,
2013-07-11 20:01:00,71.7,67.6,29.43,NNW,340,0.0,0.0,87,0.00,,,0.24,12,WeatherCatV1.15B25,2013-07-12 00:01:00,
2013-07-11 20:06:00,71.4,67.7,29.43,NNW,340,0.0,0.0,88,0.00,,,0.24,9,WeatherCatV1.15B25,2013-07-12 00:06:00,
2013-07-11 20:11:00,71.2,67.8,29.43,NNW,340,0.0,0.0,89,0.00,,,0.24,7,WeatherCatV1.15B25,2013-07-12 00:11:00,
2013-07-11 20:16:00,71.1,67.7,29.44,NNW,340,0.0,0.0,89,0.00,,,0.24,5,WeatherCatV1.15B25,2013-07-12 00:16:00,
2013-07-11 20:21:00,70.9,67.5,29.44,NNW,340,0.0,0.0,89,0.00,,,0.24,0,WeatherCatV1.15B25,2013-07-12 00:21:00,
2013-07-11 20:26:00,70.6,67.2,29.44,NNW,340,0.0,0.0,89,0.00,,,0.24,0,WeatherCatV1.15B25,2013-07-12 00:26:00,
2013-07-11 20:31:00,70.3,66.9,29.44,NNW,341,0.0,0.0,89,0.00,,,0.24,0,WeatherCatV1.15B25,2013-07-12 00:31:00,
2013-07-11 20:36:00,70.0,66.9,29.44,NNW,340,0.0,0.0,90,0.00,,,0.24,0,WeatherCatV1.15B25,2013-07-12 00:36:00,
2013-07-11 20:41:00,69.7,66.6,29.44,NNW,341,0.0,0.0,90,0.00,,,0.25,0,WeatherCatV1.15B25,2013-07-12 00:41:00,
2013-07-11 20:46:00,69.4,66.3,29.44,NNW,341,0.0,0.0,90,0.00,,,0.25,0,WeatherCatV1.15B25,2013-07-12 00:46:00,
2013-07-11 20:51:00,69.0,65.9,29.45,NNW,340,0.0,0.0,90,0.00,,,0.25,0,WeatherCatV1.15B25,2013-07-12 00:51:00,
2013-07-11 20:56:00,68.7,65.6,29.45,NNW,340,0.0,0.0,90,0.00,,,0.25,0,WeatherCatV1.15B25,2013-07-12 00:56:00,
2013-07-11 21:01:00,68.4,65.3,29.45,NNW,340,0.0,0.0,90,0.00,,,0.25,0,WeatherCatV1.15B25,2013-07-12 01:01:00,
2013-07-11 21:06:00,68.1,65.4,29.45,NNW,341,0.0,1.0,91,0.00,,,0.25,0,WeatherCatV1.15B25,2013-07-12 01:06:00,
2013-07-11 21:11:00,67.8,64.8,29.45,NNW,340,0.0,0.0,90,0.00,,,0.25,0,WeatherCatV1.15B25,2013-07-12 01:11:00,
2013-07-11 21:16:00,67.5,64.5,29.45,NNW,340,0.0,0.0,90,0.00,,,0.25,0,WeatherCatV1.15B25,2013-07-12 01:16:00,
2013-07-11 21:21:00,67.2,64.2,29.46,NNW,341,0.0,0.0,90,0.00,,,0.25,0,WeatherCatV1.15B25,2013-07-12 01:21:00,
2013-07-11 21:26:00,66.9,64.2,29.45,NNW,341,0.0,0.0,91,0.00,,,0.25,0,WeatherCatV1.15B25,2013-07-12 01:26:00,
2013-07-11 21:31:00,66.7,64.0,29.46,NNW,341,0.0,0.0,91,0.00,,,0.25,0,WeatherCatV1.15B25,2013-07-12 01:31:00,
2013-07-11 21:36:00,66.5,64.1,29.46,NNW,340,0.0,0.0,92,0.00,,,0.25,0,WeatherCatV1.15B25,2013-07-12 01:36:00,
2013-07-11 21:41:00,66.2,63.5,29.47,NNW,341,0.0,0.0,91,0.00,,,0.25,0,WeatherCatV1.15B25,2013-07-12 01:41:00,
2013-07-11 21:46:00,66.1,63.7,29.47,NNW,341,0.0,0.0,92,0.00,,,0.25,0,WeatherCatV1.15B25,2013-07-12 01:46:00,
2013-07-11 21:51:00,65.9,63.5,29.47,NNW,340,0.0,0.0,92,0.00,,,0.25,0,WeatherCatV1.15B25,2013-07-12 01:51:00,
2013-07-11 21:56:00,65.8,63.4,29.47,NNW,341,0.0,0.0,92,0.00,,,0.25,0,WeatherCatV1.15B25,2013-07-12 01:56:00,
2013-07-11 22:01:00,65.6,63.2,29.47,NNW,341,0.0,0.0,92,0.00,,,0.25,0,WeatherCatV1.15B25,2013-07-12 02:01:00,
2013-07-11 22:06:00,65.4,63.0,29.47,NNW,341,0.0,0.0,92,0.00,,,0.25,0,WeatherCatV1.15B25,2013-07-12 02:06:00,
2013-07-11 22:11:00,65.2,62.8,29.48,NNW,340,0.0,0.0,92,0.00,,,0.25,0,WeatherCatV1.15B25,2013-07-12 02:11:00,
2013-07-11 22:16:00,65.0,62.9,29.48,NNW,341,0.0,0.0,93,0.00,,,0.25,0,WeatherCatV1.15B25,2013-07-12 02:16:00,
2013-07-11 22:21:00,64.8,62.4,29.48,NNW,341,0.0,0.0,92,0.00,,,0.25,0,WeatherCatV1.15B25,2013-07-12 02:21:00,
2013-07-11 22:26:00,64.6,62.2,29.48,NNW,340,0.0,0.0,92,0.00,,,0.25,0,WeatherCatV1.15B25,2013-07-12 02:26:00,
2013-07-11 22:31:00,64.3,61.9,29.48,NNW,340,0.0,0.0,92,0.00,,,0.25,0,WeatherCatV1.15B25,2013-07-12 02:31:00,
2013-07-11 22:36:00,64.1,61.7,29.49,NNW,341,0.0,0.0,92,0.00,,,0.25,0,WeatherCatV1.15B25,2013-07-12 02:36:00,
2013-07-11 22:41:00,63.9,61.8,29.49,NNW,341,0.0,0.0,93,0.00,,,0.25,0,WeatherCatV1.15B25,2013-07-12 02:41:00,
2013-07-11 22:46:00,63.7,61.6,29.49,NNW,341,0.0,0.0,93,0.00,,,0.25,0,WeatherCatV1.15B25,2013-07-12 02:46:00,
2013-07-11 22:51:00,63.5,61.4,29.49,NNW,341,0.0,0.0,93,0.00,,,0.25,0,WeatherCatV1.15B25,2013-07-12 02:51:00,
2013-07-11 22:56:00,63.4,61.3,29.49,NNW,341,0.0,0.0,93,0.00,,,0.25,0,WeatherCatV1.15B25,2013-07-12 02:56:00,
2013-07-11 23:01:00,63.2,61.1,29.49,NNW,341,0.0,0.0,93,0.00,,,0.25,0,WeatherCatV1.15B25,2013-07-12 03:01:00,
2013-07-11 23:06:00,63.0,61.2,29.49,NNW,341,0.0,0.0,94,0.00,,,0.25,0,WeatherCatV1.15B25,2013-07-12 03:06:00,
2013-07-11 23:11:00,62.8,61.0,29.50,NNW,341,0.0,1.0,94,0.00,,,0.25,0,WeatherCatV1.15B25,2013-07-12 03:11:00,
2013-07-11 23:16:00,62.7,60.9,29.50,NNW,341,0.0,0.0,94,0.00,,,0.25,0,WeatherCatV1.15B25,2013-07-12 03:16:00,
2013-07-11 23:21:00,62.5,60.7,29.50,NNW,341,0.0,0.0,94,0.00,,,0.25,0,WeatherCatV1.15B25,2013-07-12 03:21:00,
2013-07-11 23:26:00,62.3,60.5,29.50,NNW,341,0.0,0.0,94,0.00,,,0.25,0,WeatherCatV1.15B25,2013-07-12 03:26:00,
2013-07-11 23:31:00,62.1,60.3,29.50,NNW,341,0.0,0.0,94,0.00,,,0.25,0,WeatherCatV1.15B25,2013-07-12 03:31:00,
2013-07-11 23:36:00,62.0,60.2,29.50,NNW,341,0.0,0.0,94,0.00,,,0.25,0,WeatherCatV1.15B25,2013-07-12 03:36:00,
2013-07-11 23:41:00,61.9,60.2,29.50,NNW,341,0.0,0.0,94,0.00,,,0.25,0,WeatherCatV1.15B25,2013-07-12 03:41:00,
2013-07-11 23:46:00,61.8,60.3,29.50,NNW,341,0.0,0.0,95,0.00,,,0.25,0,WeatherCatV1.15B25,2013-07-12 03:46:00,
2013-07-11 23:51:00,61.6,60.2,29.50,NNW,341,0.0,0.0,95,0.00,,,0.25,0,WeatherCatV1.15B25,2013-07-12 03:51:00,
2013-07-11 23:56:00,61.5,60.1,29.51,NNW,341,0.0,0.0,95,0.00,,,0.25,0,WeatherCatV1.15B25,2013-07-12 03:56:00,